Year,Month,Day,Hour,Minute,Value (Times are PST for temperature in C)
2016,06,12,00,00,11.60
2016,06,12,00,01,11.60
2016,06,12,00,02,11.60
2016,06,12,00,03,11.60
2016,06,12,00,04,11.60
2016,06,12,00,05,11.50
2016,06,12,00,06,11.50
2016,06,12,00,07,11.40
2016,06,12,00,08,11.40
2016,06,12,00,09,11.40
2016,06,12,00,10,11.40
2016,06,12,00,11,11.30
2016,06,12,00,12,11.30
2016,06,12,00,13,11.20
2016,06,12,00,14,11.20
2016,06,12,00,15,11.20
2016,06,12,00,16,11.20
2016,06,12,00,17,11.10
2016,06,12,00,18,11.10
2016,06,12,00,19,11.10
2016,06,12,00,20,11.00
2016,06,12,00,21,11.00
2016,06,12,00,22,11.00
2016,06,12,00,23,10.90
2016,06,12,00,24,10.90
2016,06,12,00,25,10.90
2016,06,12,00,26,10.90
2016,06,12,00,27,10.90
2016,06,12,00,28,10.90
2016,06,12,00,29,10.90
2016,06,12,00,30,10.90
2016,06,12,00,31,10.80
2016,06,12,00,32,10.80
2016,06,12,00,33,10.80
2016,06,12,00,34,10.80
2016,06,12,00,35,10.80
2016,06,12,00,36,10.80
2016,06,12,00,37,10.70
2016,06,12,00,38,10.70
2016,06,12,00,39,10.70
2016,06,12,00,40,10.70
2016,06,12,00,41,10.70
2016,06,12,00,42,10.70
2016,06,12,00,43,10.70
2016,06,12,00,44,10.70
2016,06,12,00,45,10.70
2016,06,12,00,46,10.70
2016,06,12,00,47,10.70
2016,06,12,00,48,10.70
2016,06,12,00,49,10.60
2016,06,12,00,50,10.60
2016,06,12,00,51,10.60
2016,06,12,00,52,10.60
2016,06,12,00,53,10.60
2016,06,12,00,54,10.60
2016,06,12,00,55,10.50
2016,06,12,00,56,10.50
2016,06,12,00,57,10.40
2016,06,12,00,58,10.40
2016,06,12,00,59,10.40
2016,06,12,01,00,10.40
2016,06,12,01,01,10.30
2016,06,12,01,02,10.30
2016,06,12,01,03,10.30
2016,06,12,01,04,10.30
2016,06,12,01,05,10.20
2016,06,12,01,06,10.20
2016,06,12,01,07,10.20
2016,06,12,01,08,10.20
2016,06,12,01,09,10.20
2016,06,12,01,10,10.20
2016,06,12,01,11,10.20
2016,06,12,01,12,10.20
2016,06,12,01,13,10.20
2016,06,12,01,14,10.20
2016,06,12,01,15,10.10
2016,06,12,01,16,10.10
2016,06,12,01,17,10.10
2016,06,12,01,18,10.00
2016,06,12,01,19,10.00
2016,06,12,01,20,9.90
2016,06,12,01,21,9.90
2016,06,12,01,22,9.90
2016,06,12,01,23,9.90
2016,06,12,01,24,9.80
2016,06,12,01,25,9.80
2016,06,12,01,26,9.80
2016,06,12,01,27,9.80
2016,06,12,01,28,9.70
2016,06,12,01,29,9.70
2016,06,12,01,30,9.70
2016,06,12,01,31,9.70
2016,06,12,01,32,9.70
2016,06,12,01,33,9.70
2016,06,12,01,34,9.70
2016,06,12,01,35,9.70
2016,06,12,01,36,9.70
2016,06,12,01,37,9.70
2016,06,12,01,38,9.70
2016,06,12,01,39,9.70
2016,06,12,01,40,9.80
2016,06,12,01,41,9.80
2016,06,12,01,42,9.80
2016,06,12,01,43,9.80
2016,06,12,01,44,9.80
2016,06,12,01,45,9.90
2016,06,12,01,46,9.90
2016,06,12,01,47,9.90
2016,06,12,01,48,9.90
2016,06,12,01,49,9.90
2016,06,12,01,50,9.90
2016,06,12,01,51,9.90
2016,06,12,01,52,9.90
2016,06,12,01,53,9.80
2016,06,12,01,54,9.80
2016,06,12,01,55,9.80
2016,06,12,01,56,9.80
2016,06,12,01,57,9.80
2016,06,12,01,58,9.80
2016,06,12,01,59,9.80
2016,06,12,02,00,9.70
2016,06,12,02,01,9.70
2016,06,12,02,02,9.70
2016,06,12,02,03,9.70
2016,06,12,02,04,9.60
2016,06,12,02,05,9.60
2016,06,12,02,06,9.60
2016,06,12,02,07,9.60
2016,06,12,02,08,9.60
2016,06,12,02,09,9.60
2016,06,12,02,10,9.60
2016,06,12,02,11,9.60
2016,06,12,02,12,9.60
2016,06,12,02,13,9.60
2016,06,12,02,14,9.60
2016,06,12,02,15,9.60
2016,06,12,02,16,9.60
2016,06,12,02,17,9.60
2016,06,12,02,18,9.50
2016,06,12,02,19,9.50
2016,06,12,02,20,9.50
2016,06,12,02,21,9.50
2016,06,12,02,22,9.40
2016,06,12,02,23,9.40
2016,06,12,02,24,9.40
2016,06,12,02,25,9.40
2016,06,12,02,26,9.40
2016,06,12,02,27,9.40
2016,06,12,02,28,9.40
2016,06,12,02,29,9.40
2016,06,12,02,30,9.30
2016,06,12,02,31,9.30
2016,06,12,02,32,9.30
2016,06,12,02,33,9.30
2016,06,12,02,34,9.30
2016,06,12,02,35,9.30
2016,06,12,02,36,9.30
2016,06,12,02,37,9.30
2016,06,12,02,38,9.30
2016,06,12,02,39,9.30
2016,06,12,02,40,9.30
2016,06,12,02,41,9.20
2016,06,12,02,42,9.20
2016,06,12,02,43,9.20
2016,06,12,02,44,9.20
2016,06,12,02,45,9.20
2016,06,12,02,46,9.10
2016,06,12,02,47,9.20
2016,06,12,02,48,9.20
2016,06,12,02,49,9.20
2016,06,12,02,50,9.20
2016,06,12,02,51,9.20
2016,06,12,02,52,9.20
2016,06,12,02,53,9.20
2016,06,12,02,54,9.20
2016,06,12,02,55,9.20
2016,06,12,02,56,9.10
2016,06,12,02,57,9.10
2016,06,12,02,58,9.20
2016,06,12,02,59,9.20
2016,06,12,03,00,9.20
2016,06,12,03,01,9.20
2016,06,12,03,02,9.20
2016,06,12,03,03,9.20
2016,06,12,03,04,9.20
2016,06,12,03,05,9.10
2016,06,12,03,06,9.10
2016,06,12,03,07,9.00
2016,06,12,03,08,9.00
2016,06,12,03,09,8.90
2016,06,12,03,10,8.90
2016,06,12,03,11,8.90
2016,06,12,03,12,8.80
2016,06,12,03,13,8.80
2016,06,12,03,14,8.80
2016,06,12,03,15,8.70
2016,06,12,03,16,8.70
2016,06,12,03,17,8.70
2016,06,12,03,18,8.70
2016,06,12,03,19,8.70
2016,06,12,03,20,8.80
2016,06,12,03,21,8.80
2016,06,12,03,22,8.70
2016,06,12,03,23,8.70
2016,06,12,03,24,8.70
2016,06,12,03,25,8.70
2016,06,12,03,26,8.70
2016,06,12,03,27,8.70
2016,06,12,03,28,8.70
2016,06,12,03,29,8.60
2016,06,12,03,30,8.60
2016,06,12,03,31,8.60
2016,06,12,03,32,8.50
2016,06,12,03,33,8.50
2016,06,12,03,34,8.50
2016,06,12,03,35,8.50
2016,06,12,03,36,8.50
2016,06,12,03,37,8.60
2016,06,12,03,38,8.60
2016,06,12,03,39,8.60
2016,06,12,03,40,8.60
2016,06,12,03,41,8.60
2016,06,12,03,42,8.70
2016,06,12,03,43,8.70
2016,06,12,03,44,8.70
2016,06,12,03,45,8.70
2016,06,12,03,46,8.70
2016,06,12,03,47,8.70
2016,06,12,03,48,8.70
2016,06,12,03,49,8.70
2016,06,12,03,50,8.80
2016,06,12,03,51,8.80
2016,06,12,03,52,8.80
2016,06,12,03,53,8.80
2016,06,12,03,54,8.80
2016,06,12,03,55,8.90
2016,06,12,03,56,8.90
2016,06,12,03,57,8.90
2016,06,12,03,58,8.90
2016,06,12,03,59,9.00
2016,06,12,04,00,8.90
2016,06,12,04,01,8.90
2016,06,12,04,02,8.90
2016,06,12,04,03,8.90
2016,06,12,04,04,8.90
2016,06,12,04,05,8.90
2016,06,12,04,06,8.90
2016,06,12,04,07,8.80
2016,06,12,04,08,8.80
2016,06,12,04,09,8.80
2016,06,12,04,10,8.80
2016,06,12,04,11,8.80
2016,06,12,04,12,8.80
2016,06,12,04,13,8.80
2016,06,12,04,14,8.80
2016,06,12,04,15,8.80
2016,06,12,04,16,8.80
2016,06,12,04,17,8.80
2016,06,12,04,18,8.80
2016,06,12,04,19,8.80
2016,06,12,04,20,8.80
2016,06,12,04,21,8.80
2016,06,12,04,22,8.80
2016,06,12,04,23,8.80
2016,06,12,04,24,8.80
2016,06,12,04,25,8.70
2016,06,12,04,26,8.70
2016,06,12,04,27,8.70
2016,06,12,04,28,8.60
2016,06,12,04,29,8.60
2016,06,12,04,30,8.60
2016,06,12,04,31,8.60
2016,06,12,04,32,8.60
2016,06,12,04,33,8.60
2016,06,12,04,34,8.60
2016,06,12,04,35,8.60
2016,06,12,04,36,8.60
2016,06,12,04,37,8.60
2016,06,12,04,38,8.60
2016,06,12,04,39,8.50
2016,06,12,04,40,8.50
2016,06,12,04,41,8.50
2016,06,12,04,42,8.40
2016,06,12,04,43,8.40
2016,06,12,04,44,8.40
2016,06,12,04,45,8.40
2016,06,12,04,46,8.40
2016,06,12,04,47,8.30
2016,06,12,04,48,8.30
2016,06,12,04,49,8.30
2016,06,12,04,50,8.30
2016,06,12,04,51,8.30
2016,06,12,04,52,8.30
2016,06,12,04,53,8.30
2016,06,12,04,54,8.30
2016,06,12,04,55,8.40
2016,06,12,04,56,8.40
2016,06,12,04,57,8.40
2016,06,12,04,58,8.40
2016,06,12,04,59,8.40
2016,06,12,05,00,8.50
2016,06,12,05,01,8.50
2016,06,12,05,02,8.50
2016,06,12,05,03,8.50
2016,06,12,05,04,8.60
2016,06,12,05,05,8.60
2016,06,12,05,06,8.60
2016,06,12,05,07,8.60
2016,06,12,05,08,8.60
2016,06,12,05,09,8.70
2016,06,12,05,10,8.70
2016,06,12,05,11,8.70
2016,06,12,05,12,8.80
2016,06,12,05,13,8.80
2016,06,12,05,14,8.80
2016,06,12,05,15,8.80
2016,06,12,05,16,8.90
2016,06,12,05,17,8.90
2016,06,12,05,18,8.90
2016,06,12,05,19,8.90
2016,06,12,05,20,8.90
2016,06,12,05,21,9.00
2016,06,12,05,22,9.00
2016,06,12,05,23,9.00
2016,06,12,05,24,9.10
2016,06,12,05,25,9.10
2016,06,12,05,26,9.20
2016,06,12,05,27,9.20
2016,06,12,05,28,9.30
2016,06,12,05,29,9.30
2016,06,12,05,30,9.40
2016,06,12,05,31,9.40
2016,06,12,05,32,9.50
2016,06,12,05,33,9.50
2016,06,12,05,34,9.60
2016,06,12,05,35,9.60
2016,06,12,05,36,9.60
2016,06,12,05,37,9.60
2016,06,12,05,38,9.70
2016,06,12,05,39,9.70
2016,06,12,05,40,9.70
2016,06,12,05,41,9.70
2016,06,12,05,42,9.70
2016,06,12,05,43,9.70
2016,06,12,05,44,9.70
2016,06,12,05,45,9.70
2016,06,12,05,46,9.70
2016,06,12,05,47,9.70
2016,06,12,05,48,9.70
2016,06,12,05,49,9.70
2016,06,12,05,50,9.60
2016,06,12,05,51,9.60
2016,06,12,05,52,9.60
2016,06,12,05,53,9.60
2016,06,12,05,54,9.60
2016,06,12,05,55,9.60
2016,06,12,05,56,9.60
2016,06,12,05,57,9.70
2016,06,12,05,58,9.70
2016,06,12,05,59,9.70
2016,06,12,06,00,9.70
2016,06,12,06,01,9.70
2016,06,12,06,02,9.70
2016,06,12,06,03,9.70
2016,06,12,06,04,9.70
2016,06,12,06,05,9.70
2016,06,12,06,06,9.70
2016,06,12,06,07,9.70
2016,06,12,06,08,9.80
2016,06,12,06,09,9.80
2016,06,12,06,10,9.80
2016,06,12,06,11,9.80
2016,06,12,06,12,9.80
2016,06,12,06,13,9.80
2016,06,12,06,14,9.90
2016,06,12,06,15,9.90
2016,06,12,06,16,9.90
2016,06,12,06,17,10.00
2016,06,12,06,18,10.00
2016,06,12,06,19,10.10
2016,06,12,06,20,10.10
2016,06,12,06,21,10.20
2016,06,12,06,22,10.20
2016,06,12,06,23,10.20
2016,06,12,06,24,10.30
2016,06,12,06,25,10.30
2016,06,12,06,26,10.30
2016,06,12,06,27,10.30
2016,06,12,06,28,10.30
2016,06,12,06,29,10.40
2016,06,12,06,30,10.40
2016,06,12,06,31,10.40
2016,06,12,06,32,10.40
2016,06,12,06,33,10.50
2016,06,12,06,34,10.50
2016,06,12,06,35,10.50
2016,06,12,06,36,10.50
2016,06,12,06,37,10.60
2016,06,12,06,38,10.60
2016,06,12,06,39,10.60
2016,06,12,06,40,10.60
2016,06,12,06,41,10.60
2016,06,12,06,42,10.60
2016,06,12,06,43,10.70
2016,06,12,06,44,10.70
2016,06,12,06,45,10.70
2016,06,12,06,46,10.70
2016,06,12,06,47,10.70
2016,06,12,06,48,10.80
2016,06,12,06,49,10.80
2016,06,12,06,50,10.80
2016,06,12,06,51,10.80
2016,06,12,06,52,10.90
2016,06,12,06,53,10.90
2016,06,12,06,54,11.00
2016,06,12,06,55,11.00
2016,06,12,06,56,11.00
2016,06,12,06,57,11.10
2016,06,12,06,58,11.10
2016,06,12,06,59,11.20
2016,06,12,07,00,11.20
2016,06,12,07,01,11.20
2016,06,12,07,02,11.30
2016,06,12,07,03,11.30
2016,06,12,07,04,11.30
2016,06,12,07,05,11.40
2016,06,12,07,06,11.40
2016,06,12,07,07,11.40
2016,06,12,07,08,11.50
2016,06,12,07,09,11.60
2016,06,12,07,10,11.60
2016,06,12,07,11,11.70
2016,06,12,07,12,11.80
2016,06,12,07,13,11.90
2016,06,12,07,14,12.00
2016,06,12,07,15,12.10
2016,06,12,07,16,12.10
2016,06,12,07,17,12.10
2016,06,12,07,18,12.20
2016,06,12,07,19,12.30
2016,06,12,07,20,12.30
2016,06,12,07,21,12.40
2016,06,12,07,22,12.40
2016,06,12,07,23,12.40
2016,06,12,07,24,12.50
2016,06,12,07,25,12.60
2016,06,12,07,26,12.60
2016,06,12,07,27,12.60
2016,06,12,07,28,12.60
2016,06,12,07,29,12.60
2016,06,12,07,30,12.60
2016,06,12,07,31,12.60
2016,06,12,07,32,12.60
2016,06,12,07,33,12.60
2016,06,12,07,34,12.70
2016,06,12,07,35,12.70
2016,06,12,07,36,12.70
2016,06,12,07,37,12.70
2016,06,12,07,38,12.70
2016,06,12,07,39,12.70
2016,06,12,07,40,12.70
2016,06,12,07,41,12.70
2016,06,12,07,42,12.70
2016,06,12,07,43,12.70
2016,06,12,07,44,12.70
2016,06,12,07,45,12.70
2016,06,12,07,46,12.70
2016,06,12,07,47,12.70
2016,06,12,07,48,12.70
2016,06,12,07,49,12.70
2016,06,12,07,50,12.70
2016,06,12,07,51,12.70
2016,06,12,07,52,12.70
2016,06,12,07,53,12.80
2016,06,12,07,54,12.80
2016,06,12,07,55,12.80
2016,06,12,07,56,12.90
2016,06,12,07,57,12.90
2016,06,12,07,58,13.00
2016,06,12,07,59,13.00
2016,06,12,08,00,13.00
2016,06,12,08,01,13.10
2016,06,12,08,02,13.10
2016,06,12,08,03,13.10
2016,06,12,08,04,13.10
2016,06,12,08,05,13.20
2016,06,12,08,06,13.20
2016,06,12,08,07,13.30
2016,06,12,08,08,13.30
2016,06,12,08,09,13.40
2016,06,12,08,10,13.50
2016,06,12,08,11,13.50
2016,06,12,08,12,13.60
2016,06,12,08,13,13.60
2016,06,12,08,14,13.70
2016,06,12,08,15,13.70
2016,06,12,08,16,13.80
2016,06,12,08,17,13.80
2016,06,12,08,18,13.90
2016,06,12,08,19,13.90
2016,06,12,08,20,13.90
2016,06,12,08,21,13.90
2016,06,12,08,22,14.00
2016,06,12,08,23,14.00
2016,06,12,08,24,14.00
2016,06,12,08,25,14.00
2016,06,12,08,26,14.00
2016,06,12,08,27,14.00
2016,06,12,08,28,14.00
2016,06,12,08,29,14.00
2016,06,12,08,30,14.00
2016,06,12,08,31,14.00
2016,06,12,08,32,14.00
2016,06,12,08,33,14.00
2016,06,12,08,34,14.00
2016,06,12,08,35,14.10
2016,06,12,08,36,14.10
2016,06,12,08,37,14.10
2016,06,12,08,38,14.10
2016,06,12,08,39,14.20
2016,06,12,08,40,14.20
2016,06,12,08,41,14.20
2016,06,12,08,42,14.30
2016,06,12,08,43,14.30
2016,06,12,08,44,14.30
2016,06,12,08,45,14.30
2016,06,12,08,46,14.40
2016,06,12,08,47,14.40
2016,06,12,08,48,14.40
2016,06,12,08,49,14.40
2016,06,12,08,50,14.40
2016,06,12,08,51,14.40
2016,06,12,08,52,14.30
2016,06,12,08,53,14.30
2016,06,12,08,54,14.30
2016,06,12,08,55,14.20
2016,06,12,08,56,14.20
2016,06,12,08,57,14.20
2016,06,12,08,58,14.20
2016,06,12,08,59,14.20
2016,06,12,09,00,14.20
2016,06,12,09,01,14.20
2016,06,12,09,02,14.30
2016,06,12,09,03,14.30
2016,06,12,09,04,14.40
2016,06,12,09,05,14.40
2016,06,12,09,06,14.50
2016,06,12,09,07,14.50
2016,06,12,09,08,14.60
2016,06,12,09,09,14.60
2016,06,12,09,10,14.70
2016,06,12,09,11,14.80
2016,06,12,09,12,14.90
2016,06,12,09,13,15.00
2016,06,12,09,14,15.00
2016,06,12,09,15,15.00
2016,06,12,09,16,14.90
2016,06,12,09,17,14.80
2016,06,12,09,18,14.70
2016,06,12,09,19,14.70
2016,06,12,09,20,14.70
2016,06,12,09,21,14.60
2016,06,12,09,22,14.50
2016,06,12,09,23,14.50
2016,06,12,09,24,14.40
2016,06,12,09,25,14.40
2016,06,12,09,26,14.40
2016,06,12,09,27,14.40
2016,06,12,09,28,14.30
2016,06,12,09,29,14.30
2016,06,12,09,30,14.30
2016,06,12,09,31,14.30
2016,06,12,09,32,14.30
2016,06,12,09,33,14.30
2016,06,12,09,34,14.40
2016,06,12,09,35,14.40
2016,06,12,09,36,14.50
2016,06,12,09,37,14.50
2016,06,12,09,38,14.60
2016,06,12,09,39,14.60
2016,06,12,09,40,14.60
2016,06,12,09,41,14.60
2016,06,12,09,42,14.60
2016,06,12,09,43,14.50
2016,06,12,09,44,14.50
2016,06,12,09,45,14.40
2016,06,12,09,46,14.40
2016,06,12,09,47,14.40
2016,06,12,09,48,14.40
2016,06,12,09,49,14.40
2016,06,12,09,50,14.40
2016,06,12,09,51,14.50
2016,06,12,09,52,14.50
2016,06,12,09,53,14.50
2016,06,12,09,54,14.40
2016,06,12,09,55,14.40
2016,06,12,09,56,14.40
2016,06,12,09,57,14.40
2016,06,12,09,58,14.50
2016,06,12,09,59,14.60
2016,06,12,10,00,14.80
2016,06,12,10,01,14.90
2016,06,12,10,02,15.00
2016,06,12,10,03,15.00
2016,06,12,10,04,15.10
2016,06,12,10,05,15.00
2016,06,12,10,06,15.00
2016,06,12,10,07,15.00
2016,06,12,10,08,15.00
2016,06,12,10,09,15.10
2016,06,12,10,10,15.20
2016,06,12,10,11,15.20
2016,06,12,10,12,15.10
2016,06,12,10,13,15.00
2016,06,12,10,14,15.00
2016,06,12,10,15,15.00
2016,06,12,10,16,15.00
2016,06,12,10,17,15.00
2016,06,12,10,18,15.00
2016,06,12,10,19,14.90
2016,06,12,10,20,14.90
2016,06,12,10,21,14.90
2016,06,12,10,22,14.90
2016,06,12,10,23,15.00
2016,06,12,10,24,15.00
2016,06,12,10,25,15.00
2016,06,12,10,26,15.00
2016,06,12,10,27,15.00
2016,06,12,10,28,14.90
2016,06,12,10,29,14.70
2016,06,12,10,30,14.60
2016,06,12,10,31,14.60
2016,06,12,10,32,14.60
2016,06,12,10,33,14.70
2016,06,12,10,34,14.80
2016,06,12,10,35,14.80
2016,06,12,10,36,14.80
2016,06,12,10,37,14.70
2016,06,12,10,38,14.70
2016,06,12,10,39,14.70
2016,06,12,10,40,14.70
2016,06,12,10,41,14.70
2016,06,12,10,42,14.70
2016,06,12,10,43,14.80
2016,06,12,10,44,14.80
2016,06,12,10,45,14.90
2016,06,12,10,46,14.80
2016,06,12,10,47,14.70
2016,06,12,10,48,14.70
2016,06,12,10,49,14.70
2016,06,12,10,50,14.70
2016,06,12,10,51,14.80
2016,06,12,10,52,15.00
2016,06,12,10,53,15.00
2016,06,12,10,54,15.00
2016,06,12,10,55,15.00
2016,06,12,10,56,15.20
2016,06,12,10,57,15.20
2016,06,12,10,58,15.10
2016,06,12,10,59,15.00
2016,06,12,11,00,15.00
2016,06,12,11,01,15.00
2016,06,12,11,02,15.00
2016,06,12,11,03,15.00
2016,06,12,11,04,15.10
2016,06,12,11,05,15.20
2016,06,12,11,06,15.20
2016,06,12,11,07,15.30
2016,06,12,11,08,15.40
2016,06,12,11,09,15.40
2016,06,12,11,10,15.30
2016,06,12,11,11,15.20
2016,06,12,11,12,15.20
2016,06,12,11,13,15.10
2016,06,12,11,14,15.00
2016,06,12,11,15,15.00
2016,06,12,11,16,15.00
2016,06,12,11,17,15.00
2016,06,12,11,18,15.00
2016,06,12,11,19,15.00
2016,06,12,11,20,15.00
2016,06,12,11,21,15.00
2016,06,12,11,22,15.00
2016,06,12,11,23,15.00
2016,06,12,11,24,15.00
2016,06,12,11,25,15.00
2016,06,12,11,26,15.00
2016,06,12,11,27,15.00
2016,06,12,11,28,15.00
2016,06,12,11,29,15.00
2016,06,12,11,30,15.00
2016,06,12,11,31,15.00
2016,06,12,11,32,15.00
2016,06,12,11,33,15.00
2016,06,12,11,34,15.00
2016,06,12,11,35,15.00
2016,06,12,11,36,15.00
2016,06,12,11,37,15.00
2016,06,12,11,38,15.00
2016,06,12,11,39,15.20
2016,06,12,11,40,15.20
2016,06,12,11,41,15.20
2016,06,12,11,42,15.30
2016,06,12,11,43,15.30
2016,06,12,11,44,15.30
2016,06,12,11,45,15.40
2016,06,12,11,46,15.40
2016,06,12,11,47,15.40
2016,06,12,11,48,15.30
2016,06,12,11,49,15.20
2016,06,12,11,50,15.20
2016,06,12,11,51,15.30
2016,06,12,11,52,15.20
2016,06,12,11,53,15.10
2016,06,12,11,54,15.20
2016,06,12,11,55,15.20
2016,06,12,11,56,15.30
2016,06,12,11,57,15.30
2016,06,12,11,58,15.30
2016,06,12,11,59,15.30
2016,06,12,12,00,15.40
2016,06,12,12,01,15.70
2016,06,12,12,02,15.80
2016,06,12,12,03,15.90
2016,06,12,12,04,15.90
2016,06,12,12,05,15.80
2016,06,12,12,06,15.80
2016,06,12,12,07,15.80
2016,06,12,12,08,15.90
2016,06,12,12,09,16.00
2016,06,12,12,10,16.10
2016,06,12,12,11,16.10
2016,06,12,12,12,16.00
2016,06,12,12,13,16.10
2016,06,12,12,14,16.10
2016,06,12,12,15,16.00
2016,06,12,12,16,15.90
2016,06,12,12,17,16.00
2016,06,12,12,18,16.00
2016,06,12,12,19,16.10
2016,06,12,12,20,16.20
2016,06,12,12,21,16.20
2016,06,12,12,22,16.30
2016,06,12,12,23,16.30
2016,06,12,12,24,16.30
2016,06,12,12,25,16.40
2016,06,12,12,26,16.30
2016,06,12,12,27,16.30
2016,06,12,12,28,16.10
2016,06,12,12,29,16.10
2016,06,12,12,30,16.10
2016,06,12,12,31,16.20
2016,06,12,12,32,16.20
2016,06,12,12,33,16.30
2016,06,12,12,34,16.30
2016,06,12,12,35,16.30
2016,06,12,12,36,16.20
2016,06,12,12,37,16.40
2016,06,12,12,38,16.50
2016,06,12,12,39,16.40
2016,06,12,12,40,16.30
2016,06,12,12,41,16.20
2016,06,12,12,42,16.20
2016,06,12,12,43,16.10
2016,06,12,12,44,16.00
2016,06,12,12,45,16.20
2016,06,12,12,46,16.30
2016,06,12,12,47,16.20
2016,06,12,12,48,16.20
2016,06,12,12,49,16.20
2016,06,12,12,50,16.20
2016,06,12,12,51,16.20
2016,06,12,12,52,16.20
2016,06,12,12,53,16.20
2016,06,12,12,54,16.20
2016,06,12,12,55,16.20
2016,06,12,12,56,16.20
2016,06,12,12,57,16.30
2016,06,12,12,58,16.50
2016,06,12,12,59,16.60
2016,06,12,13,00,16.70
2016,06,12,13,01,16.70
2016,06,12,13,02,16.70
2016,06,12,13,03,16.70
2016,06,12,13,04,16.70
2016,06,12,13,05,16.80
2016,06,12,13,06,16.80
2016,06,12,13,07,16.80
2016,06,12,13,08,16.80
2016,06,12,13,09,16.80
2016,06,12,13,10,16.80
2016,06,12,13,11,16.80
2016,06,12,13,12,16.80
2016,06,12,13,13,16.80
2016,06,12,13,14,16.90
2016,06,12,13,15,17.00
2016,06,12,13,16,17.10
2016,06,12,13,17,17.10
2016,06,12,13,18,17.10
2016,06,12,13,19,17.10
2016,06,12,13,20,17.10
2016,06,12,13,21,17.00
2016,06,12,13,22,17.00
2016,06,12,13,23,17.00
2016,06,12,13,24,16.90
2016,06,12,13,25,16.80
2016,06,12,13,26,16.70
2016,06,12,13,27,16.70
2016,06,12,13,28,16.80
2016,06,12,13,29,16.90
2016,06,12,13,30,16.90
2016,06,12,13,31,16.90
2016,06,12,13,32,16.90
2016,06,12,13,33,16.90
2016,06,12,13,34,17.00
2016,06,12,13,35,17.00
2016,06,12,13,36,17.20
2016,06,12,13,37,17.30
2016,06,12,13,38,17.40
2016,06,12,13,39,17.40
2016,06,12,13,40,17.40
2016,06,12,13,41,17.30
2016,06,12,13,42,17.10
2016,06,12,13,43,17.10
2016,06,12,13,44,17.10
2016,06,12,13,45,17.20
2016,06,12,13,46,17.20
2016,06,12,13,47,17.20
2016,06,12,13,48,17.20
2016,06,12,13,49,17.20
2016,06,12,13,50,17.30
2016,06,12,13,51,17.40
2016,06,12,13,52,17.30
2016,06,12,13,53,17.20
2016,06,12,13,54,17.30
2016,06,12,13,55,17.20
2016,06,12,13,56,17.30
2016,06,12,13,57,17.40
2016,06,12,13,58,17.60
2016,06,12,13,59,17.60
2016,06,12,14,00,17.60
2016,06,12,14,01,17.50
2016,06,12,14,02,17.40
2016,06,12,14,03,17.40
2016,06,12,14,04,17.50
2016,06,12,14,05,17.60
2016,06,12,14,06,17.70
2016,06,12,14,07,17.70
2016,06,12,14,08,17.80
2016,06,12,14,09,17.80
2016,06,12,14,10,17.90
2016,06,12,14,11,18.00
2016,06,12,14,12,17.90
2016,06,12,14,13,17.70
2016,06,12,14,14,17.50
2016,06,12,14,15,17.50
2016,06,12,14,16,17.50
2016,06,12,14,17,17.40
2016,06,12,14,18,17.40
2016,06,12,14,19,17.40
2016,06,12,14,20,17.40
2016,06,12,14,21,17.40
2016,06,12,14,22,17.30
2016,06,12,14,23,17.30
2016,06,12,14,24,17.30
2016,06,12,14,25,17.40
2016,06,12,14,26,17.50
2016,06,12,14,27,17.50
2016,06,12,14,28,17.60
2016,06,12,14,29,17.70
2016,06,12,14,30,17.80
2016,06,12,14,31,17.80
2016,06,12,14,32,17.80
2016,06,12,14,33,17.70
2016,06,12,14,34,17.70
2016,06,12,14,35,17.70
2016,06,12,14,36,17.50
2016,06,12,14,37,17.40
2016,06,12,14,38,17.40
2016,06,12,14,39,17.40
2016,06,12,14,40,17.30
2016,06,12,14,41,17.20
2016,06,12,14,42,17.30
2016,06,12,14,43,17.30
2016,06,12,14,44,17.30
2016,06,12,14,45,17.30
2016,06,12,14,46,17.40
2016,06,12,14,47,17.40
2016,06,12,14,48,17.50
2016,06,12,14,49,17.50
2016,06,12,14,50,17.50
2016,06,12,14,51,17.40
2016,06,12,14,52,17.40
2016,06,12,14,53,17.40
2016,06,12,14,54,17.40
2016,06,12,14,55,17.40
2016,06,12,14,56,17.40
2016,06,12,14,57,17.30
2016,06,12,14,58,17.30
2016,06,12,14,59,17.30
2016,06,12,15,00,17.20
2016,06,12,15,01,17.10
2016,06,12,15,02,17.20
2016,06,12,15,03,17.20
2016,06,12,15,04,17.20
2016,06,12,15,05,17.20
2016,06,12,15,06,17.20
2016,06,12,15,07,17.30
2016,06,12,15,08,17.30
2016,06,12,15,09,17.30
2016,06,12,15,10,17.30
2016,06,12,15,11,17.20
2016,06,12,15,12,17.20
2016,06,12,15,13,17.10
2016,06,12,15,14,17.00
2016,06,12,15,15,16.90
2016,06,12,15,16,16.90
2016,06,12,15,17,16.90
2016,06,12,15,18,16.80
2016,06,12,15,19,16.80
2016,06,12,15,20,16.80
2016,06,12,15,21,16.70
2016,06,12,15,22,16.70
2016,06,12,15,23,16.70
2016,06,12,15,24,16.70
2016,06,12,15,25,16.70
2016,06,12,15,26,16.70
2016,06,12,15,27,16.70
2016,06,12,15,28,16.60
2016,06,12,15,29,16.60
2016,06,12,15,30,16.50
2016,06,12,15,31,16.50
2016,06,12,15,32,16.50
2016,06,12,15,33,16.50
2016,06,12,15,34,16.50
2016,06,12,15,35,16.50
2016,06,12,15,36,16.50
2016,06,12,15,37,16.50
2016,06,12,15,38,16.50
2016,06,12,15,39,16.60
2016,06,12,15,40,16.60
2016,06,12,15,41,16.70
2016,06,12,15,42,16.80
2016,06,12,15,43,16.80
2016,06,12,15,44,16.80
2016,06,12,15,45,16.80
2016,06,12,15,46,16.80
2016,06,12,15,47,16.70
2016,06,12,15,48,16.70
2016,06,12,15,49,16.60
2016,06,12,15,50,16.60
2016,06,12,15,51,16.60
2016,06,12,15,52,16.60
2016,06,12,15,53,16.50
2016,06,12,15,54,16.50
2016,06,12,15,55,16.50
2016,06,12,15,56,16.40
2016,06,12,15,57,16.40
2016,06,12,15,58,16.40
2016,06,12,15,59,16.40
2016,06,12,16,00,16.40
2016,06,12,16,01,16.40
2016,06,12,16,02,16.40
2016,06,12,16,03,16.40
2016,06,12,16,04,16.50
2016,06,12,16,05,16.50
2016,06,12,16,06,16.50
2016,06,12,16,07,16.40
2016,06,12,16,08,16.40
2016,06,12,16,09,16.30
2016,06,12,16,10,16.30
2016,06,12,16,11,16.30
2016,06,12,16,12,16.40
2016,06,12,16,13,16.40
2016,06,12,16,14,16.40
2016,06,12,16,15,16.40
2016,06,12,16,16,16.40
2016,06,12,16,17,16.40
2016,06,12,16,18,16.30
2016,06,12,16,19,16.30
2016,06,12,16,20,16.30
2016,06,12,16,21,16.30
2016,06,12,16,22,16.30
2016,06,12,16,23,16.30
2016,06,12,16,24,16.30
2016,06,12,16,25,16.20
2016,06,12,16,26,16.20
2016,06,12,16,27,16.20
2016,06,12,16,28,16.20
2016,06,12,16,29,16.20
2016,06,12,16,30,16.20
2016,06,12,16,31,16.20
2016,06,12,16,32,16.20
2016,06,12,16,33,16.20
2016,06,12,16,34,16.20
2016,06,12,16,35,16.10
2016,06,12,16,36,16.10
2016,06,12,16,37,16.10
2016,06,12,16,38,16.10
2016,06,12,16,39,16.10
2016,06,12,16,40,16.10
2016,06,12,16,41,16.10
2016,06,12,16,42,16.10
2016,06,12,16,43,16.10
2016,06,12,16,44,16.10
2016,06,12,16,45,16.00
2016,06,12,16,46,16.10
2016,06,12,16,47,16.00
2016,06,12,16,48,16.10
2016,06,12,16,49,16.10
2016,06,12,16,50,16.10
2016,06,12,16,51,16.10
2016,06,12,16,52,16.10
2016,06,12,16,53,16.10
2016,06,12,16,54,16.10
2016,06,12,16,55,16.10
2016,06,12,16,56,16.00
2016,06,12,16,57,16.00
2016,06,12,16,58,16.00
2016,06,12,16,59,16.00
2016,06,12,17,00,15.90
2016,06,12,17,01,15.90
2016,06,12,17,02,15.90
2016,06,12,17,03,15.90
2016,06,12,17,04,15.90
2016,06,12,17,05,15.90
2016,06,12,17,06,15.90
2016,06,12,17,07,15.90
2016,06,12,17,08,15.90
2016,06,12,17,09,15.90
2016,06,12,17,10,15.90
2016,06,12,17,11,15.90
2016,06,12,17,12,15.90
2016,06,12,17,13,16.00
2016,06,12,17,14,15.90
2016,06,12,17,15,15.90
2016,06,12,17,16,15.90
2016,06,12,17,17,15.90
2016,06,12,17,18,15.90
2016,06,12,17,19,15.90
2016,06,12,17,20,15.90
2016,06,12,17,21,15.90
2016,06,12,17,22,15.90
2016,06,12,17,23,15.90
2016,06,12,17,24,15.90
2016,06,12,17,25,15.90
2016,06,12,17,26,15.90
2016,06,12,17,27,15.80
2016,06,12,17,28,15.80
2016,06,12,17,29,15.80
2016,06,12,17,30,15.80
2016,06,12,17,31,15.80
2016,06,12,17,32,15.80